This is the latest recevied weather packets stored in our database for station/object KV9E. If no packets are shown the sender has not sent any weather packets the latest 1 day(s).
| Time | Temp. | Humidity | Pressure | Rain* | Wind** | Luminosity | Snow |
|---|---|---|---|---|---|---|---|
| 1778016569 | 21.67° C | 50% | 1009.4 hPa | 0 mm | 0.89 m/s, 162° | 400 W/m² | - |
| 1778016266 | 22.22° C | 50% | 1009.4 hPa | 0 mm | 0.45 m/s, 140° | 290 W/m² | - |
| 1778015962 | 21.67° C | 52% | 1009.7 hPa | 0 mm | 0.45 m/s, 175° | 359 W/m² | - |
| 1778015660 | 22.78° C | 50% | 1008.9 hPa | 0 mm | 0 m/s | 333 W/m² | - |
| 1778015356 | 22.78° C | 49% | 1009.1 hPa | 0 mm | 0.45 m/s, 183° | 405 W/m² | - |
| 1778015054 | 21.67° C | 49% | 1009.6 hPa | 0 mm | 0 m/s | 421 W/m² | - |
| 1778014750 | 22.22° C | 49% | 1009.5 hPa | 0 mm | 0.89 m/s, 166° | 424 W/m² | - |
| 1778014449 | 22.22° C | 50% | 1009.8 hPa | 0 mm | 1.79 m/s, 129° | 432 W/m² | - |
| 1778014145 | 22.78° C | 49% | 1010 hPa | 0 mm | 0.89 m/s, 203° | 451 W/m² | - |
| 1778013843 | 21.67° C | 50% | 1010 hPa | 0 mm | 1.34 m/s, 164° | 513 W/m² | - |
| 1778013540 | 21.67° C | 49% | 1010 hPa | 0 mm | 0.89 m/s, 187° | 523 W/m² | - |
| 1778013236 | 21.67° C | 51% | 1010.2 hPa | 0 mm | 1.34 m/s, 163° | 434 W/m² | - |
| 1778012933 | 21.67° C | 54% | 1010 hPa | 0 mm | 0.45 m/s, 197° | 366 W/m² | - |
| 1778012629 | 21.11° C | 54% | 1010.2 hPa | 0 mm | 0 m/s | 463 W/m² | - |
| 1778012326 | 21.11° C | 54% | 1010.3 hPa | 0 mm | 1.79 m/s, 152° | 360 W/m² | - |
| 1778012023 | 21.11° C | 55% | 1010.3 hPa | 0 mm | 0.89 m/s, 172° | 334 W/m² | - |
| 1778011721 | 20.56° C | 56% | 1010.4 hPa | 0 mm | 0 m/s | 326 W/m² | - |
| 1778011418 | 20.56° C | 56% | 1010.6 hPa | 0 mm | 2.24 m/s, 162° | 353 W/m² | - |
| 1778011113 | 20.56° C | 55% | 1011 hPa | 0 mm | 0.89 m/s, 122° | 260 W/m² | - |
| 1778010811 | 20° C | 56% | 1011.1 hPa | 0 mm | 0.89 m/s, 176° | 434 W/m² | - |
| 1778010508 | 19.44° C | 57% | 1011 hPa | 0 mm | 1.79 m/s, 178° | 307 W/m² | - |
| 1778010205 | 19.44° C | 57% | 1011.1 hPa | 0 mm | 0 m/s | 134 W/m² | - |
| 1778009900 | 19.44° C | 60% | 1011 hPa | 0 mm | 0 m/s | 115 W/m² | - |
| 1778009598 | 19.44° C | 62% | 1011 hPa | 0 mm | 1.34 m/s, 190° | 170 W/m² | - |
| 1778009296 | 19.44° C | 59% | 1011.2 hPa | 0 mm | 0.89 m/s, 175° | 167 W/m² | - |
* Rain latest hour (hover to see other rain measurements)
** Current wind speed in m/s (hover to see current wind gust speed)